MST,Max TemperatureF,Mean TemperatureF,Min TemperatureF,Max Dew PointF,MeanDew PointF,Min DewpointF,Max Humidity, Mean Humidity, Min Humidity, Max Sea Level PressureIn, Mean Sea Level PressureIn, Min Sea Level PressureIn, Max VisibilityMiles, Mean VisibilityMiles, Min VisibilityMiles, Max Wind SpeedMPH, Mean Wind SpeedMPH, Max Gust SpeedMPH,PrecipitationIn, CloudCover, Events, WindDirDegrees
2012-12-1,32,25,18,31,25,16,100,94,85,29.86,29.74,29.62,10,3,0,9,5,,0.00,7,Fog,65
2012-12-2,42,29,16,37,27,14,96,86,76,29.80,29.52,29.29,10,8,4,13,5,,T,5,,58
2012-12-3,47,34,20,32,26,16,88,72,52,30.11,29.83,29.55,10,10,10,16,11,25,0.00,0,,291
2012-12-4,28,21,14,24,17,11,88,84,75,30.27,30.13,29.95,10,10,10,14,8,,0.00,1,,70
2012-12-5,50,39,27,33,26,22,85,71,48,29.94,29.78,29.60,10,10,10,24,6,36,0.00,0,,282
2012-12-6,38,27,15,23,19,13,88,75,50,30.07,30.01,29.91,10,10,10,13,8,20,0.00,0,,259
2012-12-7,21,18,14,19,17,12,100,91,86,30.06,29.94,29.83,10,4,0,14,10,,0.01,8,Fog-Snow,73
2012-12-8,20,7,-6,18,9,-9,93,85,73,30.50,29.93,29.68,10,3,0,23,14,30,0.02,6,Fog-Snow,49
2012-12-9,14,4,-6,5,-2,-10,92,83,73,30.56,30.36,29.93,10,6,0,6,1,,T,4,Fog-Snow,248
2012-12-10,31,18,5,23,16,3,88,80,72,29.90,29.86,29.69,10,10,10,20,7,26,0.00,6,,264
2012-12-11,34,20,6,27,17,3,96,84,73,29.90,29.69,29.51,10,8,0,10,5,,T,6,Fog-Snow,96
2012-12-12,27,20,13,22,18,12,100,91,85,30.02,29.75,29.60,10,5,0,14,6,,T,7,Fog-Snow,78
2012-12-13,22,17,11,18,12,9,96,88,79,30.06,29.94,29.79,9,4,0,12,7,,T,8,Fog-Snow,72
2012-12-14,22,16,10,19,11,6,89,85,79,29.86,29.76,29.67,10,3,0,7,3,,0.00,6,Fog,232
2012-12-15,21,15,8,14,11,7,92,86,81,29.92,29.89,29.80,10,5,0,8,5,,0.00,5,Fog,219
2012-12-16,22,14,5,17,10,1,92,85,78,29.85,29.73,29.62,10,4,0,10,7,,0.00,6,Fog,62
2012-12-17,24,10,-4,21,3,-8,92,84,78,29.72,29.56,29.48,10,5,0,9,3,,T,6,Fog,74
2012-12-18,31,20,8,28,14,6,93,84,68,29.89,29.59,29.42,10,5,0,23,7,30,T,7,Fog-Snow,273
2012-12-19,15,3,-9,12,2,-13,92,82,73,30.21,30.03,29.80,10,4,0,14,7,18,0.01,5,Fog-Snow,266
2012-12-20,13,2,-10,6,-6,-17,84,76,65,30.21,30.14,30.01,10,8,1,9,2,,0.00,1,,73
2012-12-21,21,12,3,11,6,0,88,79,68,30.24,30.12,30.04,10,10,9,13,2,17,0.00,0,,23
2012-12-22,12,7,2,5,3,1,88,77,70,30.34,30.26,30.07,10,9,4,15,7,,T,5,,61
2012-12-23,10,-1,-13,5,-1,-17,92,81,73,30.30,30.14,30.03,10,6,0,16,9,,T,6,Fog-Snow,76
2012-12-24,7,0,-8,1,-3,-8,92,80,73,30.58,30.36,30.12,10,5,1,8,1,,T,8,Snow,71
2012-12-25,7,-4,-15,0,-7,-18,92,83,73,30.60,30.45,30.23,10,6,1,7,2,,0.01,5,Snow,68
2012-12-26,2,-6,-15,-2,-10,-19,92,82,77,30.38,30.20,30.04,10,7,1,15,7,,T,5,Snow,76
2012-12-27,8,-2,-12,1,-7,-17,92,84,72,30.21,30.09,30.00,10,6,0,7,2,,T,6,Fog-Snow,280
2012-12-28,9,1,-8,3,-2,-9,96,84,76,30.18,30.09,29.98,10,6,0,14,3,,T,4,Fog,253
2012-12-29,22,14,5,14,7,2,92,82,73,30.15,30.10,29.96,10,10,10,10,7,,0.00,2,,241
2012-12-30,22,15,8,18,14,6,93,86,81,30.20,30.10,29.97,10,7,1,14,6,,T,8,Snow,223
2012-12-31,20,17,14,18,14,10,100,86,78,30.21,30.13,30.03,10,8,0,9,5,,T,8,Fog,81